This is the latest recevied weather packets stored in our database for station/object DL4JCP-6. If no packets are shown the sender has not sent any weather packets the latest 10 day(s).
| Time | Temp. | Humidity | Pressure | Rain* | Wind** | Luminosity | Snow |
|---|---|---|---|---|---|---|---|
| 1777583895 | 4.44° C | 76% | 1030.8 hPa | 0 mm | - | - | - |
| 1777582995 | 5° C | 74% | 1030.7 hPa | 0 mm | - | - | - |
| 1777582095 | 5.56° C | 73% | 1030.9 hPa | 0 mm | - | - | - |
| 1777581194 | 5° C | 75% | 1030.7 hPa | 0 mm | - | - | - |
| 1777580294 | 5° C | 74% | 1030.8 hPa | 0 mm | - | - | - |
| 1777580044 | 5° C | 73% | 1030.6 hPa | 0 mm | - | - | - |
| 1777579744 | 5.56° C | 73% | 1030.7 hPa | 0 mm | - | - | - |
| 1777579446 | 5.56° C | 72% | 1030.7 hPa | 0 mm | - | - | - |
| 1777579394 | 5.56° C | 72% | 1030.7 hPa | 0 mm | - | - | - |
| 1777579146 | 6.11° C | 70% | 1030.6 hPa | 0 mm | - | - | - |
| 1777578846 | 6.67° C | 69% | 1030.7 hPa | 0 mm | - | - | - |
| 1777578546 | 6.67° C | 67% | 1030.6 hPa | 0 mm | - | - | - |
| 1777578497 | 6.67° C | 67% | 1030.6 hPa | 0 mm | - | - | - |
| 1777578245 | 7.22° C | 66% | 1030.9 hPa | 0 mm | - | - | - |
| 1777577945 | 7.22° C | 66% | 1030.9 hPa | 0 mm | - | - | - |
| 1777577645 | 7.78° C | 65% | 1030.8 hPa | 0 mm | - | - | - |
| 1777577594 | 7.78° C | 65% | 1030.8 hPa | 0 mm | - | - | - |
| 1777577345 | 7.78° C | 64% | 1030.8 hPa | 0 mm | - | - | - |
| 1777577046 | 8.33° C | 63% | 1030.9 hPa | 0 mm | - | - | - |
| 1777576744 | 8.33° C | 62% | 1030.8 hPa | 0 mm | - | - | - |
| 1777576697 | 8.33° C | 62% | 1030.8 hPa | 0 mm | - | - | - |
| 1777576445 | 8.33° C | 61% | 1030.7 hPa | 0 mm | - | - | - |
| 1777576145 | 8.89° C | 61% | 1030.7 hPa | 0 mm | - | - | - |
| 1777575844 | 8.89° C | 60% | 1030.7 hPa | 0 mm | - | - | - |
| 1777575797 | 8.89° C | 60% | 1030.7 hPa | 0 mm | - | - | - |
* Rain latest hour (hover to see other rain measurements)
** Current wind speed in m/s (hover to see current wind gust speed)